Tucson Davis Monthan, AZ

10:39 PM MST on December 15, 2019 (GMT -0700)
Davis-Monthan Air Force Base

Weather History for KDMA - October, 2019

Change the Weather History Date:

Tuesday, October 8, 2019

  Actual Average Record
Temperature  
Mean Temperature 80 °F -  
Max Temperature 93 °F 86 °F 100 °F (1991)
Min Temperature 66 °F 59 °F 42 °F (1970)
Cooling Degree Days 14    
Growing Degree Days 30 (Base 50)    
Moisture  
Dew Point 45 °F    
Average Humidity 34    
Maximum Humidity 61    
Minimum Humidity 14    
Precipitation  
Precipitation 0.00 in - - ()
Sea Level Pressure  
Sea Level Pressure 29.78 in    
Wind  
Wind Speed 5 mph (SW)    
Max Wind Speed 15 mph    
Max Gust Speed 16 mph    
Visibility 10 miles    
Events      
Averages and records for this station are not official NWS values.
T = Trace of Precipitation, MM = Missing Value Source: NWS Daily Summary

Daily Weather History Graph

Daily Weather History Graph

Search for Another Location

Airport or City:

Astronomy

Oct. 08, 2019 Rise Set
Actual Time 6:22 AM MST 5:59 PM MST
Civil Twilight 5:57 AM MST 6:24 PM MST
Nautical Twilight 5:29 AM MST 6:52 PM MST
Astronomical Twilight 5:00 AM MST 7:20 PM MST
Moon 3:39 PM MST (10/8) 1:37 AM MST (10/8)
Length of Visible Light 12h 26m
Length of Day
11h 37m
Waxing Gibbous, 78% of the Moon is Illuminated
Oct 8
Waxing Gibbous
Oct 13
Full
Oct 21
Last Quarter
Oct 27
New
Nov 4
First Quarter

Hourly Weather History & Observations

Time (MST) Temp. Dew Point Humidity Pressure Visibility Wind Dir Wind Speed Gust Speed Precip Events Conditions
12:58 AM 72.9 °F 52.0 °F 48% 29.80 in 10.0 mi Calm Calm - N/A   Clear
1:58 AM 70.9 °F 53.4 °F 54% 29.80 in 10.0 mi Calm Calm - N/A   Clear
2:58 AM 68.7 °F 54.3 °F 60% 29.77 in 10.0 mi East 3.5 mph - N/A   Clear
3:58 AM 68.7 °F 51.4 °F 54% 29.78 in 10.0 mi SSE 6.9 mph - N/A   Clear
4:58 AM 66.9 °F 50.2 °F 55% 29.78 in 10.0 mi Calm Calm - N/A   Clear
5:58 AM 67.8 °F 53.8 °F 61% 29.79 in 10.0 mi ESE 9.2 mph - N/A   Clear
6:58 AM 67.8 °F 52.9 °F 59% 29.81 in 10.0 mi SSE 9.2 mph - N/A   Clear
7:58 AM 72.7 °F 51.8 °F 48% 29.81 in 10.0 mi ESE 6.9 mph - N/A   Clear
8:58 AM 80.6 °F 50.0 °F 34% 29.95 in 10.0 mi SE 5.8 mph - N/A   Clear
9:58 AM 82.4 °F 50.0 °F 32% 29.95 in 10.0 mi East 5.8 mph - N/A   Clear
10:58 AM 85.8 °F 49.8 °F 29% 29.80 in 10.0 mi Calm Calm - N/A   Clear
11:58 AM 88.2 °F 45.7 °F 23% 29.77 in 10.0 mi WNW 3.5 mph - N/A   Clear
12:58 PM 89.6 °F 45.7 °F 22% 29.74 in 10.0 mi WSW 8.1 mph - N/A   Clear
1:58 PM 91.0 °F 45.7 °F 21% 29.70 in 10.0 mi SSW 6.9 mph - N/A   Clear
2:58 PM 90.3 °F 45.0 °F 21% 29.70 in 10.0 mi NNW 4.6 mph 16.1 mph N/A   Scattered Clouds
3:16 PM 93.2 °F 44.6 °F 19% 29.69 in 10.0 mi WNW 15.0 mph - N/A   Mostly Cloudy
3:58 PM 92.3 °F 41.2 °F 17% 29.68 in 10.0 mi West 11.5 mph - N/A   Clear
4:58 PM 90.9 °F 36.9 °F 15% 29.69 in 10.0 mi WNW 9.2 mph - N/A   Clear
5:58 PM 87.6 °F 32.5 °F 14% 29.70 in 10.0 mi West 9.2 mph - N/A   Clear
6:58 PM 83.8 °F 32.9 °F 16% 29.73 in 10.0 mi West 6.9 mph - N/A   Clear
7:58 PM 76.3 °F 35.8 °F 23% 29.74 in 10.0 mi SW 5.8 mph - N/A   Clear
8:58 PM 73.8 °F 38.7 °F 28% 29.86 in 10.0 mi South 6.9 mph - N/A   Clear
9:58 PM 71.8 °F 37.8 °F 29% 29.88 in 10.0 mi WSW 5.8 mph - N/A   Clear
10:58 PM 68.2 °F 39.6 °F 35% 29.76 in 10.0 mi SSW 6.9 mph - N/A   Clear
11:58 PM 67.3 °F 40.8 °F 38% 29.76 in 10.0 mi SSW 5.8 mph - N/A   Clear